Torna al catalogo

OPS 4988 DEB

AttivoLEO
NORAD 12099·DEBRIS·🇺🇸 United States

Lanciato Mar 9, 1965 da Vandenberg Space Force Base

Loading…

Prossimi Passaggi (prossime 24 ore)

TLE

AggiornatoSource: Space-Track

Epoca: Sep 14, 2026, 08:22 UTC

1 12099U 65016K   26257.34903285  .00000100  00000-0  95624-4 0  9996
2 12099  70.0760  43.3273 0016717 153.3082 226.7039 14.04958742139555

Traccia OPS 4988 DEB in tempo reale con AllMySat

Download on the App Store